TIME,DELAY(SENSOR),PRES,T(CTD),SAL,OXYGEN,RAWTEMP,T(OPTODE),TCPHASE,FLUOR,BETA(BETA700),BETA(BETA412),BETA(BETA440),CDOM,C(CSC),ED(ED411.90),ED(ED443.80),ED(ED489.40),ED(ED554.70),LU(LU412.20),LU(LU443.80),LU(LU489.40),LU(LU555.00),COMP,TILTX,TILTX(TILTY),CHECK
1350054605,5806,497.6199951171875000,17.0018005371093750,36.3636016845703100,220.9053955078125000,188.3023071289062500,17.0009708404541000,31.8911399841308600,51,101,76,61,50,13002,2146957430,2147517613,2147268013,2147468900,2147086134,2146954761,2147659904,2147122523,991,-1,8,30739
1350054732,5808,485.7900085449219000,17.1707992553710940,36.3988990783691400,225.7061004638672000,182.9031982421875000,17.1637706756591800,31.5688304901123050,50,100,76,62,50,13003,2146958345,2147517421,2147264100,2147470829,2147082605,2146953188,2147657618,2147124854,235,-1,8,61366
1350054849,5805,474.6400146484375000,17.3059005737304700,36.4272003173828100,228.4102020263672000,178.5023040771484400,17.2965106964111330,31.3720092773437500,50,101,76,61,49,13000,2146953801,2147514212,2147265088,2147468672,2147085659,2146954203,2147653622,2147125147,3105,-1,8,54498
1350054964,5804,463.6300048828125000,17.3966999053955080,36.4454994201660160,229.6407928466797000,175.3822021484375000,17.3906192779541000,31.2679100036621100,50,102,75,61,49,13001,2146954770,2147516489,2147267730,2147466788,2147087533,2146952621,2147653357,2147124580,2890,-1,8,6693
1350055079,5809,452.4700012207031000,17.4475002288818360,36.4553985595703100,231.7223968505859400,173.4329071044922000,17.4494304656982420,31.1382808685302730,50,100,76,60,48,13001,2146954377,2147517504,2147266157,2147465901,2147086994,2146957293,2147655213,2147123757,1774,-1,8,28171
1350055196,5806,440.9700012207031000,17.5177993774414060,36.4648017883300800,231.1865997314453000,170.9591979980468800,17.5240707397460940,31.1314792633056640,50,100,75,61,48,13002,2146954843,2147518208,2147265865,2147470043,2147082861,2146954340,2147654317,2147115968,1343,-2,8,1267
1350055311,5807,429.7000122070312500,17.5974006652832030,36.4808998107910160,231.4497985839843800,168.6464996337890600,17.5938491821289060,31.0872097015380860,51,100,76,61,49,13003,2146955730,2147517504,2147263990,2147464886,2147086308,2146956754,2147651538,2147126308,612,-1,8,23145
1350055426,5806,418.5100097656250000,17.6676006317138670,36.4921989440918000,232.1031036376953000,166.4405059814453000,17.6604194641113280,31.0252208709716800,50,102,76,61,48,13002,2146954002,2147519122,2147265261,2147463424,2147087030,2146960694,2147649536,2147123163,3381,-2,8,16221
1350055544,5807,407.4200134277344000,17.7273006439209000,36.5026016235351560,232.3961944580078000,164.2471923828125000,17.7266197204589840,30.9813594818115230,51,100,76,61,48,13002,2146952804,2147516269,2147264960,2147464475,2147086875,2146959323,2147656886,2147124096,2614,-1,8,23686
1350055671,5805,395.7399902343750000,17.8040008544921880,36.5162010192871100,233.3876037597656200,161.8399963378906200,17.7992897033691400,30.9005508422851560,50,101,76,61,50,13000,2146954514,2147514285,2147265590,2147459574,2147089654,2146958025,2147655414,2147123181,1673,-1,8,65144
1350055788,5803,385.2900085449219000,17.8614006042480470,36.5256996154785160,234.2886962890625000,159.9403991699218800,17.8566303253173830,30.8311500549316400,51,103,75,61,49,12999,2146958180,2147516544,2147266870,2147463250,2147089499,2146959131,2147647497,2147124022,1391,-1,8,5945
1350055915,5805,374.3999938964844000,17.9500999450683600,36.5405006408691400,234.1576995849609400,156.9998931884765600,17.9454193115234380,30.7980098724365230,50,100,76,62,48,12999,2146956534,2147514560,2147264173,2147462409,2147084955,2146960228,2147652982,2147123922,1223,-1,8,52371
1350056054,5806,363.0700073242187500,17.9909000396728500,36.5465011596679700,234.5547027587890600,155.6553039550781200,17.9860191345214840,30.7609195709228500,51,103,76,61,49,12999,2146954038,2147517165,2147264740,2147460653,2147085165,2146956763,2147648000,2147121590,1249,-1,9,56338
1350056184,5806,352.9500122070312500,18.0209007263183600,36.5504989624023440,234.6051940917968800,154.5971069335937500,18.0179805755615230,30.7444305419921880,51,100,76,61,48,12996,2146958180,2147517184,2147264228,2147458624,2147082304,2146954880,2147656384,2147118674,723,-2,8,40552
1350056335,5810,341.2099914550781000,18.0613002777099600,36.5551986694335940,234.0444946289062500,153.1876983642578000,18.0605506896972660,30.7521896362304700,51,99,77,60,49,12997,2146956672,2147517174,2147264219,2147461888,2147082907,2146958985,2147654464,2147121353,69,-1,8,57403
1350056483,5806,328.3800048828125000,18.1238994598388670,36.5624008178710940,233.2263946533203000,151.0411071777343800,18.1253890991210940,30.7635993957519530,51,101,76,60,49,12998,2146954706,2147519826,2147266715,2147457270,2147087296,2146959122,2147658102,2147126601,2806,-1,8,21494
1350056598,5802,316.8500061035156000,18.1620998382568360,36.5629005432128900,231.3865966796875000,149.6954956054687500,18.1660404205322270,30.8351497650146500,50,105,76,61,48,12997,2146953380,2147519204,2147265152,2147460946,2147083757,2146956818,2147658349,2147127186,2199,-2,9,64002
1350056713,5805,305.5199890136719000,18.2325992584228500,36.5759010314941400,231.2463073730468800,147.5372009277343800,18.2312507629394530,30.8131904602050780,50,101,76,61,50,12997,2146953636,2147521042,2147266962,2147460690,2147084470,2146961115,2147659474,2147124571,2132,-1,8,64960
1350056831,5805,294.0700073242187500,18.2721996307373050,36.5740013122558600,230.6351928710937500,146.0444946289062500,18.2763500213623050,30.8233299255371100,50,104,75,62,50,12995,2146955163,2147519817,2147263762,2147461357,2147085458,2146960137,2147667008,2147119670,1601,-2,8,31821
1350056946,5806,283.2699890136719000,18.3791007995605470,36.5838012695312500,228.8937072753906200,142.9488067626953000,18.3699092864990230,30.8677692413330080,50,102,76,62,49,12996,2146952868,2147516763,2147261604,2147461412,2147086637,2146968923,2147672027,2147122953,1218,-1,8,23166
1350057075,5806,271.6600036621094000,18.4708003997802730,36.5938987731933600,227.1681976318359400,139.7120971679687500,18.4677505493164060,30.9104690551757800,50,102,76,62,49,12996,2146956242,2147517677,2147260525,2147458377,2147085961,2146975478,2147673408,2147125613,681,-2,8,568
1350057202,5805,260.7799987792969000,18.6537990570068360,36.6049003601074200,226.4915924072265600,133.0408020019531200,18.6694908142089840,30.8550090789794920,51,103,75,61,48,12997,2146954176,2147516470,2147265060,2147457956,2147084928,2146975067,2147682532,2147130422,3364,-2,8,41131
1350057341,5805,249.0599975585937500,18.8927993774414060,36.6086997985839840,227.5137023925781200,125.5196990966796900,18.8970508575439450,30.7037391662597660,50,99,75,61,48,12999,2146952338,2147519094,2147265673,2147458651,2147086418,2146979300,2147690624,2147131922,2259,-1,8,11933
1350057471,5805,237.8999938964843800,19.0174007415771500,36.6064987182617200,229.6766967773437500,121.8330001831054700,19.0086593627929700,30.5482692718505860,50,100,77,62,49,12996,2146955437,2147517650,2147263561,2147455853,2147089984,2146991890,2147711963,2147128292,1568,-1,8,15381
1350057598,5805,226.7100067138672000,19.1256008148193360,36.5961990356445300,235.7521972656250000,118.3638992309570300,19.1137104034423830,30.2088508605957030,50,99,77,62,48,12998,2146954020,2147518217,2147263908,2147456182,2147085997,2146997888,2147731574,2147133065,1194,-1,8,57167
1350057727,5805,215.0399932861328000,19.1886005401611330,36.5882987976074200,240.1694030761718800,115.6958999633789000,19.1945209503173830,29.9661998748779300,50,101,76,61,49,12998,2146955456,2147521124,2147267218,2147459209,2147086802,2147019081,2147765092,2147136228,721,-1,9,51951
1350057854,5807,203.8399963378906200,19.2658004760742200,36.5834007263183600,243.4548034667968800,113.5708007812500000,19.2588996887207030,29.7873191833496100,50,100,76,61,49,12997,2146956297,2147519661,2147268269,2147455716,2147089024,2147046180,2147815680,2147137069,858,-1,9,48484
1350057933,5804,197.2299957275390600,19.3201999664306640,36.5816001892089840,245.4261932373047000,111.7368011474609400,19.3144798278808600,29.6738700866699220,50,100,75,60,49,12996,2146953600,2147521124,2147274139,2147455113,2147091264,2147075739,2147870765,2147141787,470,-2,8,44054
1350057988,5806,192.6300048828125000,19.3493003845214840,36.5842018127441400,245.9001007080078000,110.6832962036132800,19.3464107513427730,29.6386203765869140,51,101,75,60,49,12997,2146954477,2147520393,2147270052,2147455771,2147088969,2147087552,2147889499,2147144886,274,-1,9,45272
1350058063,5805,186.6199951171875000,19.3971996307373050,36.5842018127441400,246.3065032958984400,109.2048034667968800,19.3912200927734380,29.6012496948242200,52,102,76,61,48,12991,2146955556,2147520192,2147268772,2147451510,2147101129,2147106404,2147913828,2147144420,3526,-1,9,3269
1350058118,5804,182.5500030517578000,19.3959999084472660,36.5854988098144500,246.4394989013672000,109.1488037109375000,19.3929195404052730,29.5945796966552730,52,102,77,61,48,12994,2146954779,2147520109,2147273444,2147451483,2147097042,2147119204,2147940461,2147142939,3424,-1,9,9147
1350058173,5806,178.4600067138672000,19.4046001434326170,36.5847015380859400,246.5579986572265600,108.7636032104492200,19.4046001434326170,29.5840797424316400,53,103,76,62,49,12990,2146955328,2147524644,2147272393,2147454016,2147103744,2147138733,2147973321,2147148644,2968,-2,9,41402
1350058228,5807,174.3200073242187500,19.4333000183105470,36.5858001708984400,246.4644927978515600,108.0009994506836000,19.4277095794677730,29.5785293579101560,57,103,76,60,49,12991,2146954194,2147522368,2147276169,2147451913,2147108434,2147158610,2148018285,2147150107,2984,-1,9,62661
1350058283,5807,170.1699981689453000,19.4712009429931640,36.5877990722656250,246.2857971191406200,106.8082962036132800,19.4638690948486330,29.5712795257568360,60,109,77,60,49,12985,2146953362,2147524982,2147276672,2147452726,2147113938,2147185590,2148054043,2147153133,2974,-2,9,19675
1350058338,5805,166.0099945068359400,19.4708995819091800,36.5854988098144500,246.3952026367187500,106.7802963256836000,19.4647197723388670,29.5660305023193360,60,108,77,61,49,12984,2146953526,2147528758,2147277997,2147451776,2147121106,2147217846,2148112676,2147151798,2890,-2,9,210
1350058417,5806,160.2599945068359400,19.4822998046875000,36.5834999084472660,246.4981994628906200,106.2316970825195300,19.4813594818115230,29.5540504455566400,62,109,76,61,49,12981,2146952630,2147527661,2147282834,2147454171,2147126208,2147273901,2148205046,2147163977,2951,-2,9,63567
1350058484,5805,155.9299926757812500,19.5463008880615230,36.5932998657226560,246.1053924560547000,104.2669982910156200,19.5409393310546880,29.5463199615478500,65,109,76,62,49,12981,2146956598,2147527552,2147285312,2147454994,2147131849,2147331812,2148296448,2147166857,2794,-1,9,16977
1350058551,5804,151.6300048828125000,19.5610008239746100,36.5946998596191400,245.4553070068359400,103.7461013793945300,19.5567398071289060,29.5688591003417970,65,111,78,61,48,12979,2146956635,2147531620,2147288210,2147453147,2147158546,2147398381,2148397961,2147173412,2853,-1,9,51376
1350058606,5807,148.0099945068359400,19.6093006134033200,36.6016006469726560,244.6997985839843800,102.2639999389648400,19.6016902923584000,29.5838603973388670,67,113,77,62,48,12971,2146957440,2147532809,2147290944,2147453403,2147172233,2147466139,2148496000,2147181293,2761,-1,9,31334
1350058673,5804,143.6000061035156200,19.6721992492675780,36.6091995239257800,244.2395935058593800,100.1328964233398400,19.6663494110107420,29.5771007537841800,74,110,77,62,49,12977,2146956717,2147534235,2147297124,2147455908,2147191981,2147557540,2148619986,2147186688,2791,-2,9,36264
1350058752,5809,139.1699981689453000,19.7320003509521500,36.6169013977050800,243.4763031005859400,98.3184509277343800,19.7213993072509770,29.5883903503417970,78,112,77,62,47,12969,2146956406,2147538166,2147302226,2147455734,2147217700,2147645083,2148759195,2147201088,2654,-1,9,48152
1350058831,5809,136.0500030517578000,19.8176002502441400,36.6208992004394500,243.2348022460937500,95.5584335327148400,19.8051700592041000,29.5639801025390620,82,114,77,61,48,12968,2146956470,2147543186,2147309814,2147454381,2147240475,2147743835,2148888566,2147206893,2639,-1,9,457
1350058958,5807,132.0700073242187500,19.8780994415283200,36.6245994567871100,243.6965942382812500,93.4878234863281200,19.8680400848388670,29.5162696838378900,88,115,77,63,49,12963,2146959058,2147543442,2147313545,2147452845,2147282578,2147879085,2149066898,2147219108,2738,-1,9,36483
1350059082,5806,127.6800003051757800,19.9041996002197270,36.6096000671386700,245.2738037109375000,92.1306228637695300,19.9092502593994140,29.4272193908691400,89,113,77,62,48,12958,2146962514,2147552054,2147325211,2147453860,2147343140,2148056786,2149320694,2147239716,2845,-2,9,17719
1350059173,5809,123.3700027465820300,20.0100002288818360,36.6068000793457000,247.1759033203125000,88.8405914306640600,20.0091800689697270,29.2998600006103500,95,113,77,62,49,12956,2146965449,2147557604,2147335789,2147452233,2147405805,2148197906,2149517110,2147256265,2712,-2,9,56163
1350059252,5807,119.6500015258789000,20.1683006286621100,36.6352005004882800,246.6177062988281200,83.3542633056640600,20.1759109497070300,29.2544803619384770,102,113,78,62,49,12948,2146968603,2147563986,2147344960,2147453229,2147475264,2148381888,2149774729,2147277321,2449,-2,9,50083
1350059345,5804,115.6399993896484400,20.3355998992919920,36.6647987365722660,249.8233947753906200,78.3615493774414000,20.3277301788330080,29.0486793518066400,101,112,78,63,49,12954,2146973046,2147568246,2147358546,2147455405,2147584685,2148654153,2150140562,2147306989,1631,-1,9,32484
1350059436,5807,112.0100021362304700,20.4452991485595700,36.6688003540039060,252.9597930908203000,74.9688491821289000,20.4309501647949220,28.8690605163574220,108,113,78,62,49,12944,2146980717,2147582500,2147386806,2147455286,2147704466,2148924379,2150486518,2147339648,882,-2,9,42792
1350059563,5806,108.0299987792968800,20.5223999023437500,36.6610984802246100,253.2693023681640600,72.0971984863281200,20.5183506011962900,28.8193798065185550,114,115,77,61,48,12937,2146983990,2147597741,2147416146,2147452800,2147863350,2149263177,2150890898,2147380278,232,-1,9,26425
1350059702,5804,103.9199981689453100,20.7812995910644530,36.7008018493652340,253.3858947753906200,63.9403381347656250,20.7667999267578120,28.7111091613769530,108,113,77,61,49,12930,2146994834,2147612114,2147423277,2147453586,2148145472,2149806244,2151509458,2147436763,2948,-1,9,2294
1350059805,5805,99.4499969482421900,20.9022006988525400,36.6929016113281250,257.3822937011719000,59.8591117858886700,20.8912105560302730,28.4895992279052730,114,114,78,63,48,12927,2147014811,2147651602,2147494866,2147459172,2148595227,2150637970,2152435072,2147524516,213,-2,9,59433
1350059860,5808,96.9800033569336000,20.9605998992919920,36.6884994506835940,258.2461853027344000,57.8114089965820300,20.9536590576171880,28.4276790618896500,113,114,78,62,49,12922,2147027300,2147672402,2147534107,2147461120,2148918235,2151214729,2153085083,2147589513,742,-2,9,29092
1350059916,5806,94.4800033569336000,21.0547008514404300,36.6703987121582000,258.6296997070312500,55.0580711364746100,21.0376605987548830,28.3771095275878900,118,114,77,63,47,12906,2147044114,2147696438,2147567753,2147461074,2149244333,2151767670,2153658267,2147646857,676,-2,9,2082
1350059974,5807,92.0100021362304700,21.1268997192382800,36.6651992797851560,259.3785095214844000,52.1553382873535160,21.1262493133544920,28.3094291687011720,118,116,77,62,48,12910,2147064521,2147720923,2147606683,2147466130,2149631131,2152462738,2154366656,2147726473,416,-1,9,60392
1350060029,5808,90.1200027465820300,21.2143993377685550,36.6562995910644500,260.3641052246094000,50.1384201049804700,21.1878204345703120,28.2431697845459000,108,116,77,62,49,12910,2147073435,2147743597,2147630985,2147464950,2149934701,2152935606,2154852626,2147775360,420,-1,8,16364
1350060108,5806,88.4700012207031200,21.3544998168945300,36.6651992797851560,262.4935913085937500,45.5082206726074200,21.3292503356933600,28.0978603363037100,109,114,77,62,47,12903,2147085604,2147750509,2147610422,2147462857,2150244672,2153411209,2155263350,2147821001,3352,-2,9,17819
1350060296,5807,86.1299972534179700,21.5268001556396500,36.6548004150390600,264.6004943847656000,39.4660301208496100,21.5139694213867200,27.9368000030517580,102,115,77,62,48,12905,2147115355,2147793014,2147625938,2147465755,2150954221,2154505316,2156289929,2147931867,2305,-2,9,13171
1350060364,5809,83.5999984741211000,21.7099990844726560,36.6469001770019500,263.5022888183594000,33.2069892883300800,21.7054901123046880,27.9040107727050780,98,115,78,61,49,12898,2147160155,2147861065,2147710418,2147466742,2152002907,2156124196,2157892544,2148106532,1730,-1,9,7112
1350060420,5806,81.5400009155273400,21.8194007873535160,36.6435012817382800,264.7312011718750000,29.8928699493408200,21.8069705963134770,27.8131599426269530,95,115,77,61,48,12894,2147195538,2147916562,2147833152,2147476818,2152778240,2157255296,2158944740,2148222619,993,-2,9,16066
1350060476,5809,79.7699966430664000,21.9414005279541000,36.6370010375976560,265.4016113281250000,26.3896293640136720,21.9143104553222660,27.7429504394531250,98,116,77,62,48,12891,2147234276,2147966436,2147913042,2147486720,2153459492,2158155337,2159663954,2148303689,488,-2,9,15896
1350060532,5804,78.2799987792968800,21.9589996337890620,36.6395988464355500,266.3295898437500000,25.3034801483154300,21.9476108551025400,27.6921501159667970,92,118,78,63,48,12894,2147255387,2147983972,2147846308,2147477705,2154105563,2159115858,2160521737,2148386185,3103,-2,9,64740
1350060623,5801,76.1500015258789000,22.1028003692626950,36.6304016113281250,266.5097961425781000,20.5928192138671880,22.0920600891113280,27.6270809173584000,95,117,77,63,48,12890,2147313673,2148053595,2147889782,2147480192,2155538011,2161144329,2162191798,2148577984,2430,-2,9,56999
1350060691,5804,74.2500000000000000,22.3141994476318360,36.6240005493164060,266.5949096679687500,14.1381702423095700,22.2901897430419920,27.5443592071533200,90,120,79,62,49,12881,2147378422,2148136557,2147974582,2147480402,2157015424,2163114715,2163922898,2148767689,1993,-2,9,60473
1350060770,5806,72.3099975585937500,22.4759006500244140,36.6254997253418000,267.0231018066406000,8.9104948043823240,22.4508209228515620,27.4632892608642580,88,123,79,61,49,12884,2147443291,2148204608,2148043611,2147485110,2158551716,2165137142,2165525723,2148950756,2122,-1,9,23610
1350060850,5808,70.4499969482421900,22.5475997924804700,36.6179008483886700,267.7594909667969000,6.3489317893981930,22.5295791625976560,27.4028396606445300,86,119,78,62,48,12881,2147500498,2148270509,2148101202,2147490578,2159735515,2166664905,2166783149,2149073270,2601,-1,9,56116
1350060941,5806,67.7900009155273400,22.5697002410888670,36.6151008605957000,267.8121948242187500,4.8861079216003420,22.5745792388916000,27.3827705383300780,82,121,79,62,47,12877,2147635940,2148427766,2148274166,2147505078,2162744228,2170533750,2169937627,2149456649,3114,-2,9,64851
1350060997,5805,65.2799987792968800,22.6797008514404300,36.6080017089843750,267.6054992675781000,1.4287949800491333,22.6809692382812500,27.3488903045654300,83,122,79,62,47,12878,2147776411,2148594697,2148444562,2147516361,2165971666,2174614345,2173297801,2149837878,3210,-1,9,27438
1350061053,5806,62.9199981689453100,22.8873004913330080,36.5974006652832000,268.0302124023437500,-4.9218091964721680,22.8765792846679700,27.2546291351318360,79,124,79,62,48,12878,2147806208,2148591259,2148385728,2147508141,2166143917,2173602066,2171280438,2149681517,3065,-1,9,61605
1350061109,5803,61.0699996948242200,22.9428005218505860,36.5980987548828100,269.0458984375000000,-6.6769208908081055,22.9306793212890620,27.1932601928710940,81,119,78,62,48,12879,2148005869,2148827154,2148597723,2147527579,2171340973,2180946139,2178074998,2150416073,2563,-2,9,37460
1350061177,5806,59.3199996948242200,23.0417995452880860,36.5924987792968750,269.3019104003906000,-9.8678112030029300,23.0290908813476560,27.1443901062011720,80,122,78,61,48,12875,2148126802,2148953051,2148692077,2147532406,2174236278,2184175881,2180431689,2150719789,2388,-2,9,39351
1350061256,5808,57.0200004577636700,23.3423004150390620,36.6306991577148440,269.5665893554687500,-19.4850292205810550,23.3260498046875000,27.0174598693847660,78,123,79,62,49,12877,2148389138,2149223844,2148910409,2147547757,2180137472,2190750464,2185282706,2151345901,2223,-2,9,4130
1350061311,5803,54.8699989318847660,23.5760002136230470,36.6176986694335940,270.8828125000000000,-27.0741291046142580,23.5607891082763670,26.8745002746582030,78,122,79,63,48,12879,2148635958,2149477248,2149175286,2147572214,2185271424,2195960091,2189190738,2151959625,1560,-2,9,76
1350061454,5808,52.3100013732910160,24.0359001159667970,36.5770988464355500,269.7116088867187500,-40.8801689147949200,23.9887905120849600,26.7537193298339840,73,125,78,62,50,12866,2148914870,2149761618,2149393152,2147584923,2191348736,2202835675,2194379181,2152597394,1708,-2,9,60861
1350061515,5804,51.9500007629394500,24.0384998321533200,36.5791015625000000,269.4942016601562500,-41.6997985839843750,24.0142402648925780,26.7522201538085940,74,122,80,62,48,12864,2148969435,2149817014,2149417856,2147586386,2192589430,2204548754,2195740269,2152759625,1982,-2,9,8813
1350061637,5808,49.8199996948242200,24.6770992279052730,36.5523986816406250,266.1950073242187500,-60.3252792358398440,24.5937995910644530,26.6573696136474600,70,124,78,62,48,12858,2148260416,2148901339,2148487552,2147521737,2174935003,2179202898,2172322989,2150053485,1597,-2,9,6617
1350062275,5808,47.8899993896484400,25.5627002716064450,36.5465011596679700,261.4556884765625000,-90.2524566650390600,25.5303497314453120,26.4857196807861330,68,123,79,63,47,12842,2149802112,2150631424,2150460571,2147836982,2207896237,2219165385,2204643529,2154093504,661,-1,9,30202
1350062487,5806,45.7700004577636700,25.8299999237060550,36.5415000915527340,259.0739135742187500,-99.5651092529296900,25.8232097625732420,26.4693794250488280,68,123,79,62,47,12853,2150020059,2150700864,2149991963,2147631872,2214754258,2226165366,2208880539,2154570386,2844,-2,9,19350
1350062546,5804,43.8300018310546900,26.0673999786376950,36.5266990661621100,257.1246032714844000,-106.5822982788086000,26.0443496704101560,26.4637603759765620,68,120,78,60,47,12848,2150374930,2151018989,2150219035,2147649024,2221694189,2232617152,2212900123,2155217344,2837,-2,9,19155
1350062809,5805,41.8300018310546900,26.3409004211425780,36.4793014526367200,251.6148071289062500,-116.3218002319336000,26.3519592285156250,26.5721206665039060,64,123,78,63,48,12856,2150969965,2151571958,2150680996,2147713106,2235467227,2247353700,2223493650,2156760694,3183,-2,9,2371
1350062985,5803,39.9300003051757800,26.8337993621826170,36.4743995666503900,243.4436950683593800,-131.0140991210937500,26.8175697326660160,26.7388496398925780,65,123,77,61,47,12869,2151203501,2151821302,2150797531,2147698486,2241374893,2252369069,2226701906,2157508736,2195,-2,9,1729
1350063173,5808,37.9799995422363300,27.0238990783691400,36.4398994445800800,240.1304016113281200,-137.4821929931640600,27.0231609344482420,26.8034801483154300,62,118,79,62,48,12873,2151791277,2152374811,2151567844,2147948032,2251396397,2261366336,2232661385,2158587922,1153,-2,9,31158
1350063439,5804,36.8899993896484400,26.8323001861572270,36.2436981201171900,237.3195953369140600,-131.9573974609375000,26.8475303649902340,26.9934692382812500,61,113,78,62,48,12871,2152165997,2152599360,2151263350,2147751021,2261384576,2270553051,2237388480,2159268534,2132,-1,9,36600
1350063511,5809,34.8499984741210940,26.8155002593994140,36.2308006286621100,237.1174011230468800,-131.3522033691406200,26.8283100128173830,27.0096397399902340,59,115,77,63,47,12876,2152912630,2153270299,2151746459,2147812004,2277839286,2285813083,2247014500,2161106889,1884,-2,9,7541